[Iaude] MPEC E191: 2019 UZ173 [a=47.97,e=0.26,i=19.0,H=6.8]
    mpec at cfa.harvard.edu 
    mpec at cfa.harvard.edu
       
    Fri Mar 15 10:51:13 EDT 2024
    
    
  
M.P.E.C. 2024-E191                               Issued 2024 March 15, 14:49 UT
     The Minor Planet Electronic Circulars contain information on unusual
         minor planets, routine data on comets and natural satellites,
         and occasional editorial announcements.  They are published
    on behalf of Division F of the International Astronomical Union by the
          Minor Planet Center, Smithsonian Astrophysical Observatory,
                          Cambridge, MA 02138, U.S.A.
			  
             Prepared using the Tamkin Foundation Computer Network
                              MPC at CFA.HARVARD.EDU
            URL https://www.minorplanetcenter.net/    ISSN 1523-6714
                                   2019 UZ173                                   
Observations:
     K19UH3Z 4C2016 08 01.48961 23 21 00.54 +01 13 08.1          24.1 z1EE191T09
     K19UH3Z 4C2016 08 01.51402 23 21 00.48 +01 13 07.6          24.2 z1EE191T09
     K19UH3Z 4C2016 08 01.54663 23 21 00.39 +01 13 07.2          24.3 z1EE191T09
     K19UH3Z 4C2016 08 01.57101 23 21 00.35 +01 13 06.7          24.1 z1EE191T09
     K19UH3Z 4C2016 08 30.35300 23 19 34.83 +01 04 01.3          23.9 i1EE191T09
     K19UH3Z 4C2016 08 30.35569 23 19 34.83 +01 04 01.3          24.1 i1EE191T09
     K19UH3Z 4C2016 08 30.36379 23 19 34.80 +01 04 01.0          23.9 i1EE191T09
     K19UH3Z 4C2016 08 30.40500 23 19 34.65 +01 04 00.3          23.9 i1EE191T09
     K19UH3Z*4C2019 10 27.21084 23 25 52.34 +00 52 26.3          24.4 r1EE191T09
     K19UH3Z 4C2019 10 27.22075 23 25 52.31 +00 52 26.0          24.3 r1EE191T09
     K19UH3Z 4C2019 10 27.24037 23 25 52.26 +00 52 25.5          24.3 r1EE191T09
     K19UH3Z 4C2019 10 27.24524 23 25 52.25 +00 52 25.1          24.5 r1EE191T09
     K19UH3Z 4C2019 11 01.21232 23 25 41.06 +00 50 41.7          24.4 g1EE191T09
     K19UH3Z 4C2019 11 01.29000 23 25 40.89 +00 50 40.3          24.6 g1EE191T09
     K19UH3Z 4C2019 11 01.37860 23 25 40.69 +00 50 38.6          24.4 g1EE191T09
     K19UH3Z 4C2019 11 01.45822 23 25 40.52 +00 50 37.1          24.2 g1EE191T09
     K19UH3Z 4C2019 11 29.20334 23 25 04.29 +00 43 27.7          24.5 r1EE191T09
     K19UH3Z 4C2019 11 29.21333 23 25 04.27 +00 43 27.6          24.3 r1EE191T09
     K19UH3Z 4C2019 11 29.24183 23 25 04.25 +00 43 27.4          24.4 r1EE191T09
     K19UH3Z 4C2019 12 01.21144 23 25 03.58 +00 43 08.1          24.2 i1EE191T09
     K19UH3Z 4C2019 12 01.22561 23 25 03.58 +00 43 07.9          24.0 i1EE191T09
     K19UH3Z 4C2019 12 01.23967 23 25 03.56 +00 43 07.7          24.0 i1EE191T09
     K19UH3Z 4C2019 12 01.25018 23 25 03.56 +00 43 07.6          23.9 i1EE191T09
Observer details:
T09 Subaru Telescope, Maunakea.  Observers H. Aihara, Y. AlSayyad, M. Ando, R.
    Armstrong, J. Bosch, E. Egami, H. Furusawa, J. Furusawa, S. Harasawa, Y.
    Harikane, B.-C. Hsieh, H. Ikeda, K. Ito, I. Iwata, T. Kodama, M. Koike, M.
    Kokubo, Y. Komiyama, X. Li, Y. Liang, Y.-T. Lin, R. H. Lupton, N. B. Lust,
    L. A. MacArthur, K. Mawatari, S. Mineo, H. Miyatake, S. Miyazaki, S. More,
    T. Morishima, H. Murayama, K. Nakajima, F. Nakata, A. J. Nishizawa, M.
    Oguri, N. Okabe, Y. Okura, Y. Ono, K. Osato, M. Ouchi, Y.-C. Pan, A. A.
    Plazas Malagon, P. A. Price, S. L. Reed, E. S. Rykoff, T. Shibuya, M.
    Simunovic, M. A. Strauss, K. Sugimori, Y. Suto, N. Suzuki, M. Takada, Y.
    Takagi, T. Takata, S. Takita, M. Tanaka, S. Tang, D. S. Taranu, T. Terai,
    Y. Toba, E. L. Turner, H. Uchiyama, B. Vijarnwannaluk, C. Z. Waters, Y.
    Yamada, N. Yamamoto, T. Yamashita.  Measurers H. Fukuyama, K. Ito.  8.2-m
    f/2.0 reflector + CCD(HSC).
Orbital elements:
2019 UZ173                                                                      
Epoch 2024 Mar. 31.0 TT = JDT 2460400.5                 Alexandersen            
M 248.13543              (2000.0)            P               Q                  
n   0.00296663     Peri.  306.70566     -0.66503162     -0.74621304             
a  47.9689940      Node   185.28822     +0.74579295     -0.66148583             
e   0.2626623      Incl.   18.98545     +0.03906183     -0.07485052             
P 332              H    6.86          G   0.15           U   7                  
Residuals in seconds of arc
160801 T09  0.1-  0.1+    191027 T09  0.0   0.3+    191129 T09  0.1+  0.0
160801 T09  0.0   0.0     191027 T09  0.1-  0.2+    191129 T09  0.2-  0.0
160801 T09  0.1-  0.1+    191027 T09  0.1-  0.2+    191129 T09  0.3-  0.1+
160801 T09  0.2+  0.1-    191027 T09  0.1-  0.1-    191201 T09  0.1+  0.1+
160830 T09  0.0   0.1-    191101 T09  0.1+  0.4-    191201 T09  0.2+  0.1+
160830 T09  0.1+  0.0     191101 T09  0.1+  0.2-    191201 T09  0.0   0.0
160830 T09  0.1+  0.1-    191101 T09  0.0   0.1-    191201 T09  0.0   0.0
160830 T09  0.1-  0.1+    191101 T09  0.1+  0.0
Ephemeris:
2019 UZ173               a,e,i = 47.97, 0.26, 19                 q = 35.3693
Date    TT    R. A. (2000) Decl.     Delta      r    Elong.  Phase     V
2024 02 14    23 39 56.8 +01 06 17  55.9297 55.0904    31.5     0.5    24.4
...
2024 02 29    23 40 58.3 +01 11 53  56.0309 55.0834    16.8     0.3    24.4
...
2024 03 08    23 41 32.9 +01 15 09  56.0593 55.0797     9.2     0.2    24.4
...
2024 03 14    23 41 59.2 +01 17 41  56.0685 55.0769     4.1     0.1    24.3
2024 03 15    23 42 03.7 +01 18 07  56.0690 55.0764     3.5     0.1    24.3
2024 03 16    23 42 08.1 +01 18 33  56.0692 55.0759     3.1     0.1    24.3
...
2024 03 22    23 42 34.4 +01 21 08  56.0643 55.0731     5.8     0.1    24.3
...
2024 03 30    23 43 09.2 +01 24 36  56.0416 55.0694    13.1     0.2    24.4
...
2024 04 14    23 44 11.2 +01 30 56  55.9510 55.0623    27.4     0.5    24.4
M. P. C. Staff               (C) Copyright 2024 MPC           M.P.E.C. 2024-E191
    
    
More information about the Iaude
mailing list